Wind_Speed
126 126 127 126 126 127 127 127 128 128 128 129 129 129 129 130 130 131 131 132 132 133 133 133 134 134 134 134 133 133 133 132 132 131 130 129 128 127 126 125 124 124 123 123 122 122 121 119 118 116 115 113 111 110 108 107 106 104 103 102 101 99 98 97 96 95 94 93 92 91 90 89 88 88 87 87 86 86 85 85 84 84 84 83 83 83
128 128 128 128 128 128 129 129 129 129 129 130 130 131 131 131 132 132 133 133 134 134 134 134 135 134 134 134 134 133 132 132 131 130 129 128 127 126 125 124 124 123 123 122 121 120 119 118 116 115 113 111 110 108 107 105 104 103 102 100 99 98 97 96 94 93 92 91 90 90 89 88 88 87 86 86 85 85 85 84 84 83 83 83 83 83
129 129 129 129 129 130 130 130 130 131 131 131 132 132 132 133 133 134 134 135 135 135 135 135 135 135 134 134 133 132 132 131 130 129 128 127 126 125 124 123 123 122 122 121 120 119 117 116 114 113 111 109 108 106 105 104 102 101 100 99 98 96 95 94 93 92 91 90 89 89 88 87 87 86 86 85 85 84 84 83 83 83 83 83 83 83
130 130 131 131 131 131 131 131 132 132 132 132 133 133 134 134 135 135 135 136 136 136 135 135 135 134 134 133 132 131 131 130 129 127 126 125 124 124 123 123 122 121 120 119 118 117 115 114 112 110 109 107 106 104 103 102 101 99 98 97 96 95 94 93 92 91 90 89 88 88 87 86 86 85 85 84 84 84 83 83 83 83 83 83 83 83
132 132 132 132 132 132 133 133 133 133 133 134 134 134 135 135 136 136 136 136 136 135 135 134 134 133 133 132 131 130 129 128 127 126 125 124 123 123 122 121 121 120 119 117 116 114 113 111 109 108 106 105 103 102 101 100 99 98 97 96 95 94 93 92 91 90 89 88 88 87 86 85 85 84 84 83 83 83 83 82 82 82 83 83 83 84
133 133 133 133 133 134 134 134 134 134 134 135 135 135 136 136 136 136 136 136 135 135 134 134 133 132 132 131 130 129 128 127 126 125 124 123 122 122 121 120 119 118 116 115 113 112 110 108 107 105 104 102 101 100 99 98 97 96 95 94 93 92 91 90 90 89 88 87 87 86 85 85 84 84 83 83 82 82 82 82 82 82 83 83 84 84
135 134 134 134 134 135 135 135 135 135 135 136 136 136 136 136 136 135 135 135 134 134 133 133 132 131 130 130 129 128 126 125 125 124 123 122 121 120 119 118 117 115 114 112 110 109 107 105 104 103 101 100 99 98 97 96 95 94 94 93 92 91 90 89 89 88 87 86 86 85 84 84 83 83 82 82 82 82 82 82 82 82 83 83 84 85
135 135 135 135 136 136 136 136 136 136 136 136 136 136 136 135 135 135 134 134 133 133 132 132 131 130 129 128 127 126 125 124 123 123 122 121 120 119 118 116 114 113 111 109 107 106 104 103 101 100 99 98 97 96 95 95 94 93 92 92 91 90 89 88 88 87 86 85 85 84 83 83 82 82 82 81 81 81 81 82 82 83 83 84 85 85
136 136 136 136 136 137 137 137 136 136 136 135 135 135 135 135 135 134 133 133 132 132 131 131 131 130 128 127 126 125 124 123 122 121 121 120 118 117 115 114 112 110 108 106 104 103 101 100 98 97 97 96 95 94 94 93 93 92 91 90 90 89 88 87 87 86 85 84 84 83 83 82 82 81 81 81 81 81 81 82 82 83 84 84 85 86
136 136 137 137 137 137 137 137 136 136 135 135 135 134 134 134 134 133 133 132 131 131 130 130 129 129 127 126 124 123 122 122 121 120 119 118 116 115 113 111 109 107 105 103 101 100 99 97 96 95 95 94 94 93 93 92 91 91 90 89 89 88 87 87 86 85 84 83 83 82 82 81 81 81 81 81 81 81 81 82 83 84 84 85 86 86
136 137 137 137 137 137 137 136 136 135 135 134 134 134 133 133 133 133 133 132 131 130 129 128 128 127 126 125 123 122 121 120 119 118 116 115 113 111 109 107 105 104 102 100 99 98 97 96 95 94 93 93 92 92 91 91 90 90 89 88 88 87 86 85 85 84 83 82 82 81 81 80 80 80 80 81 81 81 82 83 83 84 85 85 86 87
136 136 137 137 137 137 136 136 135 135 134 134 134 133 133 132 131 131 132 132 131 130 129 127 126 125 124 123 122 121 120 119 117 116 114 112 110 108 106 104 102 100 99 98 97 96 95 94 93 93 93 92 92 91 90 90 89 89 88 87 87 86 85 84 83 83 82 81 81 80 80 80 80 80 80 81 81 82 83 83 84 85 85 86 86 87
136 136 136 136 136 136 136 135 135 134 134 134 133 133 133 131 130 130 130 130 129 129 128 127 125 124 122 121 120 119 118 117 115 113 111 109 107 105 103 101 99 98 96 96 95 94 93 93 93 92 92 91 91 90 89 89 88 87 87 86 85 84 84 83 82 81 81 80 80 80 80 80 80 80 81 81 82 83 83 84 85 85 86 86 87 87
135 135 135 136 136 135 135 135 134 134 134 133 132 132 131 130 129 129 129 128 128 126 125 125 125 123 121 120 118 117 115 114 112 110 108 106 104 101 99 98 97 96 95 94 94 93 93 92 92 92 91 91 90 89 89 88 87 86 86 85 84 83 82 81 81 80 80 79 79 79 80 80 80 81 82 82 83 83 84 85 85 86 86 87 87 88
134 135 135 135 135 135 134 134 133 133 133 132 131 130 130 129 129 128 128 127 126 125 124 123 123 122 120 118 116 114 112 110 108 107 105 103 101 99 97 96 95 94 94 94 93 93 92 91 91 91 90 89 89 88 88 87 86 85 84 83 83 82 81 80 80 79 79 79 79 79 80 80 81 82 82 83 84 84 85 86 86 87 87 88 88 88
134 134 134 134 134 134 133 133 132 132 131 131 130 129 129 128 128 127 126 125 124 123 122 122 121 120 118 115 112 110 108 106 105 103 102 101 99 97 95 94 94 94 93 93 93 92 92 91 90 90 89 88 88 87 86 86 85 84 83 82 81 80 79 79 79 79 79 79 79 80 80 81 82 82 83 84 84 85 86 86 87 87 88 88 89 89
133 133 133 133 133 133 132 131 131 130 130 129 129 128 127 127 126 125 124 123 122 121 121 120 119 118 116 114 110 106 104 102 101 100 99 99 97 96 94 94 94 94 93 93 92 92 91 90 89 89 88 87 86 86 85 84 83 82 81 80 79 79 78 78 78 78 78 79 79 80 81 82 82 83 84 84 85 86 86 87 87 88 88 89 89 90
132 132 132 132 132 131 131 130 130 129 128 128 127 126 125 125 124 123 122 121 120 119 118 117 115 114 113 112 108 104 101 99 98 97 97 97 96 95 94 93 93 93 93 92 92 91 90 89 88 88 87 86 85 84 83 82 82 80 80 79 78 78 78 78 78 78 79 79 80 81 81 82 83 84 84 85 85 86 87 87 88 88 89 89 90 90
131 131 131 130 130 130 129 129 128 127 127 126 125 124 123 122 121 120 119 118 117 116 115 114 112 111 109 108 105 102 98 97 96 95 95 96 96 95 94 93 93 93 92 91 91 90 89 88 87 86 86 85 84 83 82 81 80 79 78 78 77 77 77 77 78 78 79 80 80 81 82 83 84 84 85 85 86 86 87 88 88 89 89 90 90 90
129 129 129 128 128 128 127 127 126 125 124 123 122 122 121 120 119 118 116 115 114 112 111 110 109 107 106 104 102 99 97 95 94 94 94 95 95 95 94 93 92 92 91 90 89 88 87 87 86 85 84 83 82 81 80 79 78 78 77 77 77 77 77 78 78 79 79 80 81 82 83 83 84 85 85 86 87 87 88 88 89 89 90 90 90 90
128 127 127 126 125 125 125 124 123 122 121 120 119 119 118 117 116 115 113 112 110 109 107 106 105 104 102 101 99 97 95 94 93 93 93 94 94 94 93 92 91 91 90 89 88 87 86 85 84 84 83 82 81 80 79 78 77 77 77 76 76 77 77 78 79 79 80 81 81 82 83 84 85 85 86 86 87 88 88 89 89 89 90 90 90 90
125 125 124 123 123 123 122 121 120 119 118 117 117 116 115 114 113 112 110 109 107 106 105 103 102 101 100 99 98 96 94 93 92 92 92 93 93 93 91 90 89 89 88 87 86 85 85 84 83 82 81 80 79 78 77 77 76 76 76 76 77 77 78 78 79 80 80 81 82 83 83 84 85 86 86 87 88 88 88 89 89 89 89 89 89 89
123 122 122 121 120 120 119 118 118 117 115 114 114 113 112 111 110 108 107 106 104 103 102 101 100 99 98 97 96 95 93 92 91 91 91 91 92 91 90 88 87 87 86 85 84 84 83 82 81 80 79 78 78 77 76 76 76 76 76 77 77 78 78 79 79 80 81 82 82 83 84 85 86 86 87 87 88 88 88 88 89 89 89 89 89 88
120 120 119 118 118 117 116 115 115 114 113 112 111 110 108 107 106 105 104 103 102 101 100 100 99 98 97 96 95 94 92 91 89 89 89 89 89 88 87 86 85 84 84 83 82 82 81 80 80 79 78 77 77 76 76 76 76 77 77 77 78 78 79 79 80 81 81 82 83 84 85 85 86 87 87 88 88 88 88 88 88 88 88 88 87 87
118 117 116 116 115 114 113 113 112 111 110 109 108 107 106 105 104 103 102 101 100 99 99 98 98 97 96 95 94 93 91 89 87 87 86 86 86 86 84 83 82 82 82 81 80 79 79 79 78 78 77 77 76 76 76 77 77 77 78 78 79 79 80 80 81 81 82 83 84 85 85 86 87 87 87 87 87 87 87 87 87 87 87 86 86 87
115 114 114 113 112 112 111 110 109 108 107 106 105 104 104 103 102 101 100 99 98 98 97 97 97 96 95 93 92 91 89 87 85 84 83 83 83 83 82 80 80 79 79 78 78 77 77 77 77 77 76 76 76 77 77 77 78 78 79 79 79 80 80 81 82 82 83 84 85 85 86 86 86 87 87 87 87 86 86 86 86 86 86 86 86 86
113 112 111 111 110 109 108 108 107 106 105 104 103 102 101 101 100 99 99 98 97 96 96 95 95 94 92 91 90 88 86 84 82 81 80 80 80 80 79 78 77 76 76 76 75 75 75 76 76 76 76 77 77 77 78 78 78 79 79 79 80 81 81 82 83 83 84 85 85 86 86 86 86 86 86 86 86 86 86 85 85 85 85 85 85 85
110 110 109 108 107 107 106 105 104 104 103 102 101 100 99 99 98 98 97 96 95 94 93 93 92 91 90 89 87 85 83 81 79 78 78 77 77 77 76 75 74 73 73 73 73 73 74 74 75 76 76 77 77 78 78 78 79 79 80 80 81 81 82 83 84 84 85 85 85 86 86 86 86 86 86 85 85 85 85 85 85 85 85 85 85 85
108 107 106 106 105 104 103 103 102 101 101 100 99 98 97 96 96 95 95 93 92 92 91 90 89 88 87 85 84 82 80 78 77 76 75 75 75 74 73 72 71 71 70 70 71 72 73 74 75 76 76 77 78 78 79 79 79 80 80 81 82 82 83 84 84 85 85 85 85 85 85 85 85 85 85 85 85 85 85 85 85 84 84 84 84 84
105 104 103 103 102 101 101 100 100 99 98 97 96 95 94 93 93 92 91 90 89 88 88 86 85 84 82 81 80 79 78 76 74 73 72 72 72 72 71 70 69 68 68 68 69 71 72 74 75 75 76 77 78 78 79 79 80 80 81 82 82 83 83 84 84 85 85 85 85 85 85 85 85 85 85 85 85 85 85 85 85 84 84 84 84 84
101 101 100 100 99 98 98 97 96 96 95 94 93 92 91 90 89 88 87 86 85 84 83 82 81 80 78 78 77 76 75 73 71 70 69 69 69 69 68 68 68 67 67 67 68 70 71 73 74 75 76 77 78 78 79 80 80 81 81 82 83 83 84 84 84 85 85 85 85 85 85 85 85 85 85 85 85 85 85 85 85 84 84 84 84 84
98 97 96 96 95 94 94 93 92 91 90 89 88 88 87 86 85 84 83 82 81 80 79 78 77 76 75 74 73 73 72 70 69 67 66 66 67 67 66 66 67 67 67 67 68 69 70 72 74 75 76 77 78 79 80 80 80 81 81 82 83 83 84 84 84 85 85 85 85 85 85 85 85 85 85 85 85 85 85 85 85 85 84 84 84 84
93 92 92 91 90 89 89 88 87 86 86 85 84 83 82 81 80 79 78 77 76 75 74 74 73 72 71 71 70 70 69 67 66 65 64 64 64 65 66 66 67 68 68 68 69 69 70 72 73 74 75 76 78 79 79 80 81 81 81 82 82 83 83 84 84 84 85 85 85 84 84 84 84 84 85 85 85 85 85 85 85 85 85 85 85 85
88 87 86 86 85 84 83 83 82 81 80 79 78 78 77 76 75 74 73 72 71 71 70 70 69 69 68 68 67 66 65 64 63 62 62 63 63 65 66 67 68 68 69 69 70 70 71 71 72 73 74 76 77 78 79 80 80 80 81 81 81 82 83 83 84 84 84 84 84 83 83 83 83 84 84 84 84 85 85 86 86 86 86 86 86 86
82 81 80 80 79 78 78 77 76 75 75 74 73 72 72 71 70 69 69 68 67 67 66 66 65 65 65 64 64 63 62 62 61 61 61 62 63 65 66 67 68 69 69 70 70 71 71 72 72 73 74 75 77 78 78 79 79 80 80 80 81 82 82 83 83 83 83 82 82 82 82 82 82 82 83 83 84 85 85 86 86 87 87 87 87 87
76 75 74 74 73 72 72 71 70 70 69 68 68 67 67 66 66 65 64 64 63 63 63 62 62 61 61 61 61 61 61 60 60 61 61 62 63 65 66 67 68 69 69 70 70 71 71 72 73 73 74 75 76 77 78 78 79 79 80 80 80 81 81 81 81 81 81 81 81 80 80 80 80 81 82 82 83 84 85 86 87 87 88 88 88 88
69 69 68 67 67 66 66 66 65 64 64 64 63 63 62 62 61 61 61 60 60 59 59 59 58 58 58 58 59 59 60 61 61 62 62 63 64 65 66 67 68 68 69 69 70 71 72 73 73 74 75 75 76 76 77 78 78 79 79 80 80 80 81 81 80 80 79 79 79 79 79 79 79 80 81 82 83 84 85 86 87 88 88 89 89 89
63 63 62 62 61 61 61 60 60 60 59 59 59 59 58 58 58 57 57 57 56 56 56 56 56 56 56 57 58 59 60 61 62 62 63 63 64 64 65 66 67 68 69 69 70 71 72 73 73 74 74 74 75 76 76 77 78 78 78 79 79 79 80 79 79 78 78 78 77 77 77 78 78 79 80 81 82 84 85 86 87 88 88 89 89 88
58 57 57 57 56 56 56 56 56 55 55 55 55 55 54 54 54 54 54 53 53 53 54 54 55 55 56 57 58 59 60 61 62 62 63 63 64 64 65 66 67 68 69 70 71 71 72 72 73 73 73 74 74 75 76 76 77 77 77 77 77 78 78 78 78 77 76 76 76 76 77 77 78 79 80 81 82 84 85 86 87 88 88 88 88 88
53 53 52 52 52 52 52 52 52 51 51 51 51 51 51 51 51 51 51 51 51 52 53 54 55 56 57 58 58 59 60 61 61 62 63 63 64 64 65 66 68 69 70 70 71 71 72 72 72 72 73 73 74 74 75 75 75 75 75 75 75 76 76 76 76 76 75 75 75 76 76 77 78 79 80 81 82 84 85 86 87 87 88 88 87 87
48 48 48 48 48 48 48 48 48 48 48 48 48 48 48 48 48 48 49 50 51 52 53 54 55 56 57 58 59 59 60 60 61 62 62 63 64 65 66 67 68 69 70 70 71 71 72 72 72 72 72 72 72 73 73 73 73 72 72 72 73 73 74 74 75 74 74 74 75 75 76 77 78 79 80 81 83 84 85 86 86 87 87 87 86 85
45 45 45 45 45 45 45 45 45 45 45 45 45 45 46 46 47 48 49 50 51 52 53 55 56 57 58 58 59 59 59 60 61 62 63 64 65 66 67 67 68 69 69 70 71 71 72 72 72 72 72 71 71 71 71 70 70 70 70 70 70 71 72 72 73 73 74 74 75 75 76 77 78 79 80 81 83 84 84 85 86 86 86 85 84 83
41 41 41 41 41 42 42 42 42 42 42 43 43 44 45 46 47 48 50 51 52 53 54 55 56 57 58 59 59 60 60 61 61 62 63 64 65 66 67 67 68 68 69 69 70 71 71 72 72 72 71 70 69 69 68 68 68 68 68 68 69 70 71 71 72 73 73 74 75 75 76 77 77 79 80 81 82 83 84 85 85 85 84 83 82 81
38 39 39 39 39 39 39 39 40 40 41 42 43 44 45 46 48 49 50 51 52 53 54 55 55 56 58 59 60 60 61 62 62 63 64 64 65 66 66 67 67 68 68 69 70 71 71 71 71 70 69 69 68 67 66 66 66 66 67 67 68 69 70 71 72 73 73 74 75 76 76 77 77 78 79 80 82 83 83 84 84 83 83 81 80 78
36 36 36 36 37 37 37 38 39 40 41 42 44 45 46 47 48 49 50 51 52 53 54 54 55 57 58 59 60 62 63 63 64 64 64 64 64 65 66 66 67 68 68 69 69 70 70 70 70 69 68 67 66 66 65 64 64 65 65 66 68 69 70 71 72 72 73 74 75 75 76 76 77 78 79 80 81 82 82 83 82 82 81 79 77 75
34 34 34 35 36 36 37 38 40 41 42 43 44 45 46 47 48 49 50 51 52 52 54 55 56 57 59 60 61 62 63 64 64 64 64 64 65 65 66 66 67 68 68 68 69 69 69 69 69 68 67 66 65 64 64 63 63 64 65 66 68 69 70 71 72 72 73 74 75 75 76 76 77 77 78 79 79 80 81 81 81 80 79 76 74 72
33 33 34 35 36 37 38 39 40 41 42 43 44 45 46 46 47 48 49 50 51 53 54 55 57 58 60 61 62 62 63 64 64 65 65 65 65 66 66 66 67 67 67 68 68 68 68 68 67 67 66 65 64 63 62 62 62 64 65 66 68 69 70 71 72 72 73 74 75 75 76 76 76 77 77 77 78 78 79 79 78 78 76 74 71 69
33 34 35 36 37 38 39 40 41 41 42 43 44 44 45 46 47 48 49 51 52 53 55 56 58 59 60 61 61 62 63 63 64 65 65 66 66 66 67 67 67 67 67 67 67 67 67 67 67 66 65 64 63 62 61 62 62 64 65 66 68 69 70 71 71 72 73 74 74 75 75 76 76 76 76 76 76 76 76 76 76 75 73 71 68 66
33 34 35 36 37 38 39 40 40 41 42 43 43 44 45 46 47 48 50 52 53 55 56 57 58 59 60 60 61 62 62 63 64 65 65 66 66 67 67 67 67 67 67 67 67 67 67 67 67 66 65 63 62 62 61 61 62 64 65 66 67 68 69 70 71 72 73 74 74 75 75 75 75 75 75 74 73 73 73 73 73 72 71 68 66 64
34 34 35 36 37 38 38 39 40 40 41 42 43 44 45 47 48 50 51 53 54 55 56 57 58 59 60 61 61 62 63 63 64 64 65 65 65 66 66 66 66 66 66 66 66 67 67 67 67 66 65 63 62 62 62 62 62 64 65 67 68 68 69 70 71 71 72 73 74 74 75 75 74 74 73 72 71 71 70 70 70 69 68 66 64 62
33 34 35 35 36 37 38 39 39 40 41 43 44 45 47 48 50 51 52 53 54 55 56 57 58 59 60 61 62 63 63 63 64 64 64 64 64 64 65 65 65 65 65 65 66 66 67 67 68 68 67 65 64 63 63 63 63 64 65 66 67 68 69 70 70 71 72 72 73 73 74 74 73 73 72 71 70 68 67 67 67 66 65 63 62 61
Wind_Direction
275 275 276 276 277 277 277 278 278 279 279 280 280 281 281 282 282 283 283 284 284 285 285 286 287 287 288 288 289 289 290 290 291 291 292 293 293 294 295 295 295 296 296 296 296 296 296 296 295 295 295 295 294 294 294 294 294 293 293 293 293 293 293 293 292 292 292 292 292 292 291 291 291 291 291 291 291 291 291 291 291 291 291 291 291 291
275 275 275 276 276 277 277 278 278 278 279 279 280 280 281 281 282 282 283 284 284 285 285 286 286 287 287 288 288 289 290 290 291 291 292 293 293 294 294 295 295 296 296 296 296 296 296 295 295 295 294 294 294 294 294 293 293 293 293 293 293 293 292 292 292 292 292 292 291 291 291 291 291 291 290 290 290 290 291 291 291 291 291 291 291 290
275 275 275 276 276 277 277 277 278 278 279 279 280 280 281 281 282 282 283 284 284 285 285 286 286 287 287 288 288 289 290 290 291 292 292 293 293 294 294 295 295 295 296 296 295 295 295 295 294 294 294 294 294 293 293 293 293 293 292 292 292 292 292 292 292 292 291 291 291 291 291 290 290 290 290 290 290 290 290 291 291 291 291 290 290 290
275 275 275 276 276 276 277 277 278 278 279 279 280 280 281 281 282 282 283 284 284 285 285 286 286 287 287 288 289 289 290 290 291 292 292 293 294 294 294 295 295 295 295 295 295 295 294 294 294 294 294 293 293 293 293 293 292 292 292 292 292 292 292 292 292 291 291 291 291 291 290 290 290 290 290 290 290 290 290 290 290 290 290 290 290 290
275 275 275 276 276 277 277 277 278 278 279 279 280 280 281 281 282 282 283 284 284 285 285 286 286 287 287 288 289 289 290 291 291 292 293 293 294 294 294 295 295 295 295 295 294 294 294 294 293 293 293 293 293 293 292 292 292 292 292 292 292 292 292 292 291 291 291 291 291 290 290 290 290 290 290 290 290 290 290 290 290 290 290 290 290 290
275 275 275 276 276 277 277 277 278 278 279 279 280 280 281 281 282 283 283 284 284 285 285 286 287 287 288 288 289 290 290 291 292 292 293 293 294 294 294 295 295 295 294 294 294 293 293 293 293 293 293 292 292 292 292 292 292 292 292 292 292 291 291 291 291 291 291 290 290 290 290 290 290 290 290 290 290 290 290 290 290 290 290 290 290 290
275 275 275 276 276 277 277 278 278 278 279 280 280 281 281 282 282 283 283 284 284 285 286 286 287 287 288 288 289 290 291 291 292 292 293 293 294 294 294 294 294 294 294 293 293 293 293 293 292 292 292 292 292 292 291 291 291 291 291 291 291 291 291 291 291 291 290 290 290 290 290 290 290 290 290 290 290 290 290 290 290 290 290 290 290 290
275 275 276 276 276 277 277 278 278 279 279 280 280 281 281 282 282 283 283 284 285 285 286 286 287 287 288 289 289 290 291 291 292 292 293 293 294 294 294 294 294 293 293 293 293 292 292 292 292 292 291 291 291 291 291 291 291 291 291 291 291 291 291 291 291 290 290 290 290 290 290 290 290 290 290 290 290 290 290 290 290 290 290 290 290 290
275 275 275 276 276 277 277 278 278 279 279 280 280 281 281 282 282 283 284 284 285 285 286 286 287 288 288 289 290 290 291 291 292 292 293 293 293 294 294 293 293 293 292 292 292 292 291 291 291 291 291 291 291 291 291 291 291 291 291 291 291 291 291 290 290 290 290 290 290 290 290 290 290 290 290 290 290 290 290 290 290 290 290 290 290 290
274 275 275 276 276 277 277 278 278 279 279 280 280 281 281 282 283 283 284 284 285 285 286 286 287 288 289 289 290 291 291 291 292 292 293 293 293 293 293 293 293 292 292 292 291 291 291 291 291 290 290 290 290 290 290 291 291 291 291 291 291 290 290 290 290 290 290 290 290 290 290 290 290 290 290 290 290 290 290 290 290 290 290 290 290 290
274 275 275 276 276 277 277 278 278 279 280 280 281 281 282 282 283 283 284 284 285 286 286 287 287 288 289 290 290 291 291 292 292 292 293 293 293 292 292 292 292 292 291 291 291 291 290 290 290 290 290 290 290 290 290 290 290 290 290 290 290 290 290 290 290 290 290 290 290 290 290 290 290 290 290 290 290 290 290 290 290 290 290 290 290 290
274 275 275 276 276 277 277 278 278 279 280 280 281 281 282 282 283 283 284 284 285 286 286 287 288 288 289 290 290 291 291 292 292 292 292 292 292 292 291 291 291 291 291 291 290 290 290 290 290 290 290 290 290 290 290 290 290 290 290 290 290 290 290 290 290 290 290 290 290 290 290 290 290 290 290 290 290 290 290 290 290 290 290 290 290 291
274 275 275 276 276 277 277 278 278 279 280 280 281 281 282 282 283 284 284 285 285 286 287 287 288 289 289 290 290 291 291 292 292 292 292 292 291 291 291 291 291 290 290 290 290 290 290 290 290 290 290 290 290 290 290 290 290 290 290 290 290 290 290 290 290 290 290 290 290 290 290 290 290 290 290 290 290 290 290 290 290 290 290 290 291 291
274 275 275 276 276 277 277 278 278 279 280 280 281 281 282 283 283 284 284 285 285 286 287 288 288 289 289 290 290 291 291 291 292 292 291 291 291 291 290 290 290 290 290 290 289 289 289 289 289 290 290 290 290 290 290 290 290 290 290 290 290 290 290 290 290 290 290 290 290 290 290 290 290 290 290 290 290 290 290 290 290 290 290 291 291 291
274 274 275 275 276 277 277 278 278 279 280 280 281 281 282 283 283 284 284 285 286 286 287 288 288 289 289 290 290 290 291 291 291 291 291 291 290 290 290 290 290 290 289 289 289 289 289 289 289 290 290 290 290 290 290 290 290 290 290 290 290 290 290 290 290 290 290 290 290 290 290 290 290 290 290 290 290 290 290 290 290 291 291 291 291 291
273 274 274 275 276 276 277 278 278 279 280 280 281 281 282 283 283 284 285 285 286 287 287 288 288 289 289 289 289 290 290 290 290 290 290 290 290 289 289 290 289 289 289 289 289 289 289 289 289 290 290 290 290 290 289 289 289 289 289 289 289 289 289 289 290 290 290 290 290 290 290 290 290 290 290 290 290 290 291 291 291 291 291 291 291 292
273 274 274 275 275 276 277 278 278 279 279 280 281 281 282 283 283 284 285 285 286 286 287 288 288 289 289 289 289 289 289 290 290 290 290 289 289 289 289 289 289 289 289 289 289 289 289 289 289 289 289 289 289 289 289 289 289 289 289 289 289 289 289 289 290 290 290 290 290 290 290 290 290 290 290 290 290 291 291 291 291 291 291 291 292 292
273 273 274 275 275 276 277 277 278 279 279 280 281 281 282 283 284 284 285 285 286 286 287 287 288 288 289 289 289 289 289 289 289 289 289 289 289 289 289 289 289 289 289 289 289 289 289 289 289 289 289 289 289 289 289 289 289 289 289 289 289 289 289 289 290 290 290 290 290 290 290 290 290 290 290 291 291 291 291 291 291 291 292 292 292 292
273 273 274 275 275 276 277 277 278 279 279 280 281 282 282 283 284 284 285 285 286 286 287 287 288 288 288 288 288 288 289 289 289 289 289 289 289 289 289 289 289 289 289 289 289 289 289 289 289 289 289 289 289 289 289 289 289 289 289 289 289 289 289 289 290 290 290 290 290 290 290 290 290 290 291 291 291 291 291 291 291 292 292 292 292 292
273 274 274 275 275 276 277 277 278 279 280 280 281 282 282 283 284 284 285 285 286 286 286 287 287 287 287 287 288 288 288 288 288 288 288 288 288 288 289 289 289 289 289 289 289 289 289 289 289 289 289 289 289 288 289 289 289 289 289 289 289 289 289 290 290 290 290 290 290 290 290 290 290 290 291 291 291 291 291 291 292 292 292 292 292 292
273 274 274 275 276 276 277 278 278 279 280 281 281 282 282 283 284 284 285 285 285 286 286 286 286 286 287 287 287 287 287 288 288 288 288 288 288 288 288 289 289 289 289 289 289 289 289 289 288 288 288 288 288 288 288 288 288 289 289 289 289 289 290 290 290 290 290 290 290 290 290 290 290 291 291 291 291 291 292 292 292 292 292 293 293 293
273 274 275 275 276 277 277 278 279 280 280 281 281 282 282 283 284 284 284 285 285 285 286 286 286 286 286 286 286 287 287 287 288 288 288 288 288 288 288 288 289 289 289 289 289 288 288 288 288 288 288 288 288 288 288 288 288 289 289 289 289 290 290 290 290 290 290 290 290 290 290 291 291 291 291 291 292 292 292 292 293 293 293 293 293 294
274 274 275 276 277 277 278 278 279 280 280 281 281 282 282 283 283 284 284 284 285 285 285 285 285 285 286 286 286 286 286 287 287 287 288 288 288 288 288 288 288 288 288 288 288 288 288 288 288 288 288 288 288 288 288 289 289 289 289 289 290 290 290 290 290 290 290 290 290 291 291 291 291 292 292 292 292 293 293 293 293 294 294 294 294 294
274 275 275 276 277 277 278 279 279 280 280 281 281 282 282 283 283 283 284 284 284 285 285 285 285 285 285 285 286 286 286 286 287 287 287 287 287 287 287 288 288 288 288 288 288 288 288 288 288 288 288 288 289 289 289 289 289 290 290 290 290 290 291 291 291 291 291 291 291 291 291 292 292 292 293 293 293 293 294 294 294 294 295 295 295 295
274 275 276 276 277 277 278 278 279 280 280 281 281 281 282 282 283 283 283 283 284 284 284 284 285 285 285 285 285 286 286 286 286 287 287 287 287 287 287 287 287 287 287 288 288 288 288 288 288 288 289 289 289 289 290 290 290 290 291 291 291 291 291 291 291 291 291 292 292 292 292 293 293 293 293 294 294 294 295 295 295 296 296 296 296 296
274 275 276 276 277 277 278 278 279 279 280 280 281 281 281 282 282 282 283 283 283 283 284 284 284 284 285 285 285 285 285 286 286 286 286 286 286 286 286 286 286 287 287 287 288 288 288 288 289 289 289 289 290 290 290 290 291 291 291 291 292 292 292 292 292 292 292 293 293 293 293 294 294 294 294 295 295 296 296 296 296 297 297 297 297 297
274 275 275 276 277 277 278 278 279 279 279 280 280 281 281 281 282 282 282 282 283 283 283 284 284 284 284 285 285 285 285 286 286 286 285 285 285 285 285 286 286 286 287 287 287 288 288 288 289 289 290 290 290 290 290 291 291 291 292 292 292 292 293 293 293 293 293 294 294 294 294 295 295 296 296 296 297 297 297 297 298 298 298 298 298 298
274 275 275 276 276 277 277 278 278 279 279 279 280 280 280 281 281 281 282 282 282 283 283 283 283 284 284 284 284 285 285 285 285 285 285 284 284 284 285 285 286 286 286 287 287 288 288 288 289 289 290 290 290 290 291 291 292 292 292 292 293 293 293 294 294 294 295 295 295 295 296 296 297 297 298 298 298 298 298 298 298 298 298 299 299 299
274 275 275 276 276 277 277 277 278 278 278 279 279 280 280 280 281 281 281 282 282 282 283 283 283 283 284 284 284 284 284 284 284 284 284 284 284 284 285 285 285 286 286 287 287 288 288 288 289 289 289 290 290 291 291 292 292 292 293 293 294 294 294 295 295 295 296 296 296 297 297 298 298 299 299 299 299 299 299 299 299 299 300 300 300 300
274 274 275 275 276 276 276 277 277 278 278 278 279 279 280 280 280 281 281 281 282 282 282 282 283 283 283 283 283 283 283 283 284 284 284 284 284 284 285 285 285 286 286 287 287 287 288 288 288 289 289 290 291 291 292 292 293 293 294 294 295 295 296 296 296 297 297 297 298 298 299 299 300 300 300 300 300 300 300 300 300 301 301 301 301 301
274 274 274 275 275 276 276 276 277 277 278 278 278 279 279 280 280 280 281 281 281 281 282 282 282 282 282 282 282 282 283 283 283 284 284 284 284 285 285 285 286 286 286 286 286 287 287 288 288 289 290 291 291 292 292 293 294 294 295 295 296 296 297 297 297 298 298 299 299 300 300 300 301 301 301 301 301 301 301 301 301 302 302 302 302 302
273 274 274 274 275 275 276 276 276 277 277 278 278 279 279 279 279 280 280 280 280 281 281 281 281 281 281 281 282 282 283 283 284 284 284 284 285 285 285 285 286 285 285 285 285 286 286 287 289 290 291 291 292 292 293 294 294 295 295 296 296 297 297 298 298 299 299 300 300 301 301 301 302 302 302 302 302 302 302 302 302 302 302 302 302 302
273 273 274 274 274 275 275 276 276 277 277 277 278 278 278 279 279 279 279 279 280 280 280 280 280 281 281 281 281 282 283 283 284 284 285 285 285 285 285 285 285 285 285 286 286 286 287 288 289 290 291 291 292 293 293 294 295 295 296 296 297 297 298 298 299 299 300 300 301 301 302 302 302 302 302 303 303 303 303 303 302 302 302 302 302 302
273 273 274 274 274 275 275 275 276 276 277 277 277 278 278 278 278 278 278 279 279 279 279 279 280 280 281 281 282 282 283 284 284 285 285 285 285 285 285 285 285 285 286 287 287 288 288 289 289 290 290 291 292 292 293 294 295 295 296 296 297 297 298 298 299 299 300 300 301 301 302 302 302 302 303 303 303 303 303 303 303 303 303 302 302 302
273 273 273 274 274 275 275 275 276 276 276 276 277 277 277 277 277 278 278 278 278 278 279 279 280 280 281 282 282 283 283 284 284 284 284 284 284 284 285 285 286 286 287 288 289 289 290 290 290 290 291 291 292 292 293 294 295 296 296 297 297 298 298 299 299 299 300 300 301 301 302 302 302 302 303 303 303 303 303 303 303 302 302 302 302 302
272 273 273 274 274 274 275 275 275 275 276 276 276 276 276 276 277 277 277 277 278 278 279 279 280 281 281 282 283 283 284 284 284 283 283 283 284 284 285 286 287 288 288 289 290 290 290 290 290 291 291 291 292 293 294 295 296 296 297 297 298 298 298 299 299 299 300 300 301 301 301 302 302 302 302 303 303 303 303 302 302 302 302 302 302 302
272 273 273 273 274 274 274 274 274 274 275 275 275 275 275 276 276 277 277 278 278 279 279 280 281 281 282 282 282 283 283 283 283 283 283 284 284 285 286 287 288 288 289 289 290 290 290 290 291 291 292 292 293 294 295 295 296 297 297 298 298 298 299 299 299 299 300 300 301 301 301 302 302 302 302 302 302 302 302 302 302 302 302 302 302 302
272 272 272 273 273 273 273 273 273 274 274 274 274 275 275 276 276 277 277 278 279 279 280 280 281 281 281 281 282 282 282 283 283 284 284 285 286 286 287 288 288 289 289 289 289 290 290 290 291 292 293 293 294 295 295 296 296 297 297 298 298 298 299 299 299 299 300 300 301 301 301 302 302 302 302 302 302 302 302 302 301 301 301 302 302 302
271 271 271 271 272 272 272 272 272 273 273 274 274 275 275 276 276 277 278 279 279 280 280 281 280 280 280 280 281 281 282 283 284 285 285 286 287 287 288 288 288 289 289 289 290 290 290 291 292 292 293 294 295 295 295 296 296 297 297 298 298 298 298 299 299 300 300 301 301 301 302 302 302 302 302 302 302 302 302 301 301 301 302 302 302 303
270 270 270 270 271 271 271 271 272 272 273 273 274 275 275 276 277 278 279 279 279 280 280 280 280 280 280 280 281 282 283 284 285 286 286 287 287 288 288 288 288 289 289 290 290 291 291 292 292 293 293 294 294 295 295 296 296 297 297 298 298 298 299 299 299 300 300 301 301 302 302 302 302 302 302 302 302 302 301 301 301 301 302 302 303 303
269 269 269 269 270 270 271 271 272 272 273 274 274 275 276 277 278 278 279 279 279 279 279 279 280 280 281 281 282 283 284 285 285 286 287 287 287 288 288 288 289 289 290 291 291 292 292 293 293 293 294 294 294 295 295 296 296 297 297 298 298 298 299 299 299 300 301 301 302 302 302 302 303 303 302 302 302 302 301 301 301 302 302 302 303 303
268 268 268 269 269 270 270 271 272 273 274 275 276 277 277 278 278 278 278 278 278 278 279 280 280 281 282 283 283 284 285 285 286 286 287 287 288 288 289 289 290 290 291 291 292 292 293 293 293 294 294 295 295 295 296 296 297 298 298 298 299 299 299 299 300 301 301 302 302 302 303 303 303 303 302 302 302 302 302 302 302 302 302 302 303 303
267 267 268 268 269 270 271 272 273 274 275 276 277 277 277 277 277 277 277 278 278 279 280 281 282 283 283 284 284 285 285 285 286 286 287 288 288 289 290 290 291 291 292 292 293 293 293 294 294 294 295 295 296 296 297 297 298 299 299 299 299 300 300 300 301 301 302 302 303 303 303 303 303 303 303 302 302 302 302 302 302 302 303 303 303 303
267 267 268 269 271 272 273 274 275 275 276 276 276 276 276 276 277 277 278 279 280 281 281 282 283 283 284 284 285 285 286 286 287 287 288 289 289 290 291 291 292 292 293 293 294 294 294 295 295 295 296 296 297 297 298 299 299 300 300 300 300 301 301 301 302 302 303 303 303 303 303 303 303 303 303 303 303 303 303 303 303 303 303 303 303 303
268 269 270 272 273 274 274 275 275 275 275 275 275 275 276 277 277 278 279 280 281 282 283 283 284 284 284 284 285 286 286 287 288 289 289 290 291 291 292 292 293 293 294 294 295 295 295 296 296 296 297 297 298 299 299 300 300 301 301 301 301 302 302 302 302 303 303 303 303 303 303 303 303 303 303 303 303 303 303 303 303 303 303 303 304 304
271 272 273 274 274 274 274 274 273 274 274 274 275 276 277 278 279 280 281 282 282 283 283 284 284 284 284 285 286 287 288 289 290 290 291 292 292 293 293 294 294 295 295 296 296 296 296 296 297 297 298 298 299 300 300 301 302 302 302 302 302 302 303 303 303 303 303 304 304 304 304 304 304 304 304 304 304 304 304 304 304 304 304 304 305 305
273 273 273 273 273 272 272 273 273 274 275 276 277 278 279 280 281 281 282 283 283 283 284 284 284 285 285 286 287 288 289 290 292 293 293 294 295 295 296 296 296 296 297 297 297 297 298 298 298 298 299 299 300 301 302 302 303 303 303 303 303 303 303 304 304 304 304 304 304 304 304 304 304 304 304 305 305 305 305 305 305 304 304 305 306 307
273 272 272 272 272 272 273 274 274 275 276 277 278 279 280 281 282 282 283 283 283 284 284 285 285 286 287 288 289 290 291 292 294 294 295 296 297 297 298 298 298 298 298 299 299 299 299 299 299 299 300 301 301 302 303 303 304 304 304 304 304 304 304 304 305 305 305 305 305 305 305 305 305 305 305 305 306 306 306 306 305 305 305 306 307 308
271 271 271 272 273 274 274 275 276 277 278 279 280 281 282 282 282 283 283 283 284 284 285 286 287 288 289 290 291 292 293 294 295 296 297 297 298 299 299 299 300 300 300 300 300 300 301 301 301 301 301 302 302 303 304 304 305 305 305 305 305 305 305 305 305 306 306 305 305 305 305 305 306 306 306 306 306 306 307 306 306 306 306 308 309 309
271 272 273 273 274 275 276 277 278 279 280 281 281 282 282 282 283 283 283 284 285 286 287 288 289 290 291 292 293 294 295 296 296 297 298 298 299 299 300 300 300 301 301 302 302 302 302 302 302 302 302 303 304 304 305 306 306 306 306 306 306 306 306 306 306 306 306 306 306 306 306 306 306 307 307 307 307 307 307 307 307 307 308 309 309 310
272 273 274 275 276 277 278 279 280 281 281 281 282 282 282 282 283 284 285 286 287 288 289 290 292 292 293 294 295 295 296 297 297 298 298 299 299 300 300 301 301 302 302 302 303 303 303 304 304 304 304 304 305 305 306 306 307 307 307 306 306 307 307 307 307 307 307 307 307 307 307 307 308 308 308 308 308 308 308 308 308 308 309 309 310 310
Height
10562 10559 10559 10559 10558 10556 10554 10552 10552 10551 10549 10547 10546 10545 10544 10543 10541 10539 10538 10538 10536 10534 10533 10531 10529 10528 10526 10525 10524 10522 10521 10519 10518 10516 10514 10513 10511 10509 10508 10505 10503 10501 10498 10496 10493 10491 10488 10485 10483 10479 10477 10474 10473 10470 10468 10466 10464 10462 10460 10458 10457 10455 10454 10452 10451 10449 10448 10446 10444 10443 10441 10439 10438 10437 10436 10434 10433 10431 10430 10429 10428 10426 10424 10423 10422 10421
10554 10553 10552 10551 10551 10549 10548 10545 10544 10545 10544 10541 10539 10538 10538 10537 10535 10533 10531 10531 10529 10528 10526 10524 10523 10521 10519 10518 10517 10516 10514 10513 10511 10509 10508 10506 10504 10503 10500 10498 10496 10493 10491 10488 10486 10483 10480 10477 10474 10472 10469 10467 10465 10463 10461 10458 10456 10454 10453 10451 10449 10448 10446 10444 10443 10442 10440 10439 10437 10436 10434 10433 10431 10429 10428 10427 10426 10424 10423 10421 10420 10419 10418 10416 10414 10413
10546 10546 10544 10543 10543 10543 10541 10538 10538 10538 10538 10536 10533 10532 10531 10530 10528 10526 10524 10524 10523 10521 10519 10518 10516 10514 10513 10511 10510 10509 10508 10506 10504 10503 10501 10499 10498 10496 10493 10491 10489 10486 10483 10481 10478 10474 10472 10469 10466 10464 10462 10459 10457 10455 10453 10451 10449 10447 10445 10443 10442 10440 10439 10437 10436 10434 10433 10431 10430 10428 10427 10425 10424 10423 10421 10420 10419 10417 10416 10414 10413 10411 10410 10408 10407 10406
10538 10538 10536 10534 10534 10534 10533 10531 10531 10530 10529 10529 10527 10526 10524 10523 10521 10519 10518 10516 10515 10514 10512 10511 10509 10508 10506 10504 10503 10502 10501 10499 10498 10496 10494 10493 10491 10488 10486 10484 10481 10478 10476 10473 10469 10467 10464 10461 10459 10456 10454 10452 10449 10448 10445 10443 10441 10439 10438 10436 10434 10433 10431 10430 10428 10427 10426 10424 10423 10421 10419 10418 10417 10416 10414 10413 10411 10410 10409 10408 10406 10404 10403 10401 10399 10398
10529 10529 10529 10528 10526 10526 10524 10524 10524 10523 10523 10521 10520 10519 10518 10516 10514 10512 10510 10509 10508 10506 10505 10503 10502 10501 10499 10498 10496 10495 10494 10493 10491 10489 10488 10485 10483 10481 10479 10476 10474 10471 10468 10465 10462 10459 10456 10454 10451 10449 10446 10444 10442 10439 10438 10436 10434 10432 10430 10429 10427 10426 10424 10423 10421 10419 10418 10417 10415 10414 10413 10411 10410 10409 10407 10406 10404 10403 10401 10400 10398 10397 10395 10394 10392 10390
10520 10521 10521 10520 10519 10518 10516 10516 10516 10516 10515 10514 10513 10511 10510 10508 10507 10505 10503 10502 10500 10499 10498 10496 10494 10493 10492 10491 10489 10488 10487 10486 10484 10482 10480 10478 10476 10474 10471 10469 10466 10463 10460 10458 10454 10452 10449 10446 10444 10441 10439 10437 10434 10432 10430 10428 10426 10424 10423 10421 10420 10418 10417 10416 10414 10413 10411 10409 10408 10407 10406 10404 10403 10401 10400 10399 10398 10396 10394 10393 10391 10389 10388 10386 10384 10383
10511 10512 10513 10512 10511 10509 10508 10509 10509 10508 10508 10506 10504 10503 10502 10501 10499 10498 10496 10494 10493 10492 10490 10488 10487 10486 10484 10484 10483 10481 10480 10478 10476 10474 10473 10470 10468 10466 10464 10461 10458 10456 10453 10450 10448 10444 10442 10439 10437 10434 10432 10429 10427 10425 10423 10421 10419 10418 10416 10414 10413 10411 10409 10408 10407 10405 10404 10403 10401 10400 10398 10397 10396 10394 10393 10391 10390 10389 10387 10386 10384 10382 10381 10379 10377 10375
10503 10503 10503 10503 10503 10501 10501 10500 10500 10501 10501 10499 10498 10495 10494 10493 10492 10491 10489 10488 10487 10485 10483 10481 10479 10478 10476 10476 10476 10475 10473 10471 10469 10467 10465 10463 10461 10458 10456 10453 10450 10448 10445 10443 10440 10438 10435 10433 10430 10428 10425 10423 10420 10418 10416 10414 10413 10411 10409 10408 10406 10404 10403 10401 10399 10398 10397 10396 10394 10393 10391 10390 10389 10388 10386 10384 10383 10381 10380 10378 10377 10375 10373 10371 10369 10368
10496 10495 10494 10494 10494 10494 10493 10492 10491 10492 10493 10493 10491 10488 10486 10485 10484 10483 10482 10481 10479 10478 10476 10474 10471 10469 10468 10468 10469 10468 10466 10464 10461 10459 10458 10455 10453 10450 10448 10445 10443 10440 10438 10435 10433 10430 10428 10425 10423 10421 10418 10416 10414 10411 10409 10408 10406 10404 10403 10401 10399 10398 10396 10394 10393 10391 10390 10389 10388 10386 10384 10383 10382 10380 10379 10378 10376 10374 10373 10371 10369 10368 10366 10364 10362 10360
10488 10488 10487 10486 10485 10486 10486 10485 10483 10483 10484 10485 10484 10481 10480 10479 10478 10475 10473 10471 10470 10469 10469 10468 10465 10463 10461 10460 10460 10459 10459 10456 10454 10452 10450 10448 10445 10442 10439 10437 10434 10432 10429 10427 10424 10423 10420 10418 10416 10414 10411 10409 10407 10405 10403 10401 10399 10398 10396 10394 10392 10391 10389 10388 10386 10384 10383 10382 10381 10379 10378 10376 10375 10373 10372 10370 10369 10367 10366 10364 10362 10360 10358 10356 10354 10353
10480 10479 10479 10478 10478 10477 10478 10478 10476 10476 10476 10476 10476 10474 10473 10473 10471 10470 10467 10463 10461 10460 10461 10460 10458 10456 10454 10453 10451 10451 10450 10449 10446 10444 10442 10440 10438 10435 10433 10429 10428 10425 10423 10419 10417 10414 10413 10411 10409 10406 10404 10402 10400 10398 10396 10395 10393 10391 10389 10387 10386 10384 10382 10381 10379 10378 10376 10375 10374 10373 10371 10369 10368 10366 10365 10363 10361 10360 10358 10356 10354 10353 10351 10349 10347 10345
10473 10471 10471 10470 10469 10469 10469 10469 10469 10469 10469 10468 10468 10466 10464 10464 10464 10464 10461 10457 10454 10452 10452 10451 10450 10449 10448 10446 10444 10443 10441 10440 10438 10436 10434 10432 10429 10428 10425 10423 10420 10418 10416 10413 10410 10408 10406 10403 10401 10399 10397 10395 10393 10392 10390 10388 10386 10384 10383 10381 10379 10377 10376 10374 10373 10371 10370 10369 10367 10366 10364 10363 10361 10359 10358 10356 10354 10353 10351 10349 10347 10345 10343 10341 10339 10338
10465 10464 10464 10463 10462 10461 10461 10462 10461 10461 10460 10460 10460 10459 10457 10456 10456 10456 10454 10451 10448 10446 10445 10443 10441 10439 10438 10439 10438 10436 10434 10432 10430 10428 10426 10423 10421 10419 10418 10416 10413 10411 10408 10406 10403 10400 10399 10397 10394 10393 10390 10388 10386 10385 10383 10381 10379 10378 10376 10374 10373 10371 10369 10368 10366 10365 10363 10362 10361 10359 10357 10356 10354 10352 10350 10349 10347 10345 10343 10341 10339 10338 10336 10334 10333 10331
10458 10456 10456 10455 10454 10454 10454 10454 10454 10453 10452 10452 10452 10451 10450 10449 10448 10448 10446 10444 10441 10439 10439 10438 10434 10431 10429 10429 10430 10429 10428 10426 10423 10420 10417 10414 10412 10411 10411 10408 10405 10403 10401 10398 10395 10393 10392 10390 10388 10386 10384 10382 10380 10378 10376 10374 10373 10371 10369 10368 10366 10364 10363 10361 10360 10358 10357 10355 10354 10352 10350 10348 10347 10345 10343 10341 10339 10338 10336 10334 10332 10330 10328 10327 10325 10323
10450 10449 10449 10448 10446 10446 10447 10448 10447 10446 10444 10444 10444 10444 10443 10441 10440 10439 10439 10437 10434 10433 10432 10431 10428 10424 10421 10421 10422 10423 10421 10419 10416 10413 10410 10406 10403 10403 10403 10401 10398 10395 10393 10391 10388 10386 10384 10384 10381 10379 10377 10375 10373 10371 10369 10368 10366 10364 10363 10361 10359 10358 10357 10355 10353 10352 10350 10348 10347 10345 10343 10341 10339 10338 10336 10334 10332 10330 10328 10326 10324 10323 10321 10319 10317 10315
10443 10443 10442 10440 10439 10439 10439 10440 10440 10439 10438 10437 10436 10436 10436 10434 10433 10431 10431 10430 10428 10426 10425 10423 10420 10416 10413 10413 10414 10416 10416 10413 10410 10406 10403 10399 10395 10394 10396 10394 10391 10388 10385 10383 10381 10379 10378 10376 10374 10373 10371 10368 10366 10364 10363 10361 10359 10358 10356 10355 10353 10352 10350 10349 10347 10345 10344 10342 10340 10338 10336 10334 10333 10330 10328 10326 10324 10323 10321 10319 10317 10315 10313 10311 10309 10307
10435 10435 10434 10433 10433 10432 10432 10433 10433 10433 10431 10430 10429 10429 10428 10427 10426 10424 10424 10423 10421 10419 10418 10416 10413 10410 10406 10403 10403 10406 10409 10408 10405 10401 10397 10393 10388 10386 10388 10388 10384 10381 10378 10376 10374 10372 10371 10369 10368 10366 10364 10362 10360 10358 10356 10354 10353 10351 10350 10349 10348 10346 10344 10343 10341 10339 10337 10335 10333 10331 10329 10328 10325 10323 10321 10319 10317 10315 10313 10311 10309 10308 10305 10303 10301 10299
10427 10427 10427 10427 10426 10425 10425 10426 10426 10425 10424 10423 10423 10421 10421 10420 10419 10418 10417 10415 10414 10412 10411 10409 10406 10404 10401 10398 10394 10395 10399 10401 10399 10394 10391 10386 10381 10379 10379 10379 10378 10374 10371 10368 10367 10366 10364 10362 10360 10358 10356 10355 10353 10351 10350 10348 10347 10346 10344 10343 10341 10339 10338 10336 10334 10333 10331 10329 10327 10325 10323 10320 10318 10316 10314 10312 10310 10308 10306 10304 10302 10300 10298 10296 10294 10292
10419 10419 10420 10420 10419 10418 10418 10418 10418 10418 10418 10417 10416 10415 10414 10413 10411 10411 10409 10408 10407 10406 10404 10402 10399 10397 10394 10392 10389 10388 10391 10393 10392 10388 10384 10380 10375 10372 10371 10371 10369 10367 10364 10362 10360 10359 10358 10355 10353 10351 10349 10348 10346 10345 10343 10342 10341 10339 10338 10336 10335 10334 10332 10330 10328 10326 10324 10323 10320 10318 10316 10313 10311 10309 10307 10304 10303 10301 10299 10296 10294 10293 10290 10288 10286 10284
10412 10411 10412 10413 10413 10412 10411 10409 10410 10411 10411 10410 10409 10408 10407 10404 10404 10403 10402 10401 10399 10399 10397 10395 10393 10389 10388 10386 10383 10383 10384 10386 10384 10381 10378 10374 10369 10365 10364 10364 10363 10359 10357 10355 10354 10353 10351 10348 10346 10344 10343 10341 10340 10338 10337 10336 10334 10333 10332 10331 10329 10327 10326 10324 10322 10320 10318 10316 10314 10311 10309 10306 10304 10302 10299 10298 10296 10293 10291 10289 10287 10285 10283 10281 10279 10276
10404 10404 10404 10405 10406 10406 10403 10401 10402 10404 10404 10404 10403 10401 10399 10398 10396 10395 10394 10393 10393 10391 10389 10388 10385 10383 10381 10380 10378 10376 10378 10379 10378 10375 10372 10368 10363 10359 10358 10358 10356 10353 10350 10348 10347 10346 10343 10341 10339 10338 10336 10334 10333 10332 10331 10329 10328 10327 10326 10324 10323 10321 10319 10318 10315 10313 10311 10309 10306 10304 10302 10299 10297 10294 10293 10290 10288 10286 10284 10282 10279 10278 10275 10273 10271 10269
10398 10397 10396 10398 10399 10399 10397 10395 10395 10396 10397 10396 10395 10393 10391 10391 10389 10388 10386 10386 10385 10384 10382 10380 10378 10376 10375 10373 10371 10370 10371 10372 10371 10369 10366 10361 10356 10352 10351 10351 10349 10347 10344 10341 10340 10338 10336 10334 10332 10331 10329 10328 10327 10326 10324 10323 10322 10321 10319 10318 10316 10314 10313 10311 10309 10307 10304 10302 10299 10297 10294 10292 10289 10287 10285 10283 10281 10278 10276 10274 10272 10270 10268 10265 10263 10260
10391 10391 10390 10391 10391 10391 10390 10389 10388 10388 10389 10389 10388 10386 10385 10384 10383 10381 10379 10378 10378 10376 10374 10373 10371 10369 10368 10367 10365 10364 10364 10365 10365 10363 10361 10356 10350 10346 10345 10345 10343 10341 10338 10335 10333 10331 10329 10327 10325 10324 10323 10322 10321 10319 10318 10317 10316 10314 10313 10311 10309 10308 10306 10304 10302 10299 10298 10295 10293 10290 10287 10284 10282 10279 10278 10275 10273 10271 10269 10266 10264 10261 10259 10256 10254 10251
10384 10384 10384 10384 10384 10384 10383 10383 10382 10381 10381 10381 10380 10379 10378 10378 10376 10374 10373 10371 10371 10369 10368 10366 10364 10362 10360 10359 10359 10358 10358 10358 10359 10357 10354 10349 10344 10341 10339 10339 10337 10334 10331 10329 10328 10325 10323 10320 10318 10317 10316 10315 10314 10313 10311 10309 10308 10307 10306 10304 10303 10301 10299 10297 10294 10292 10290 10288 10285 10283 10279 10277 10274 10272 10269 10267 10265 10263 10260 10258 10256 10253 10250 10248 10245 10243
10378 10378 10378 10378 10377 10377 10376 10376 10375 10374 10374 10373 10373 10372 10371 10371 10369 10368 10366 10365 10364 10363 10361 10359 10357 10354 10353 10353 10352 10351 10351 10352 10352 10351 10348 10343 10339 10336 10334 10333 10331 10329 10326 10323 10321 10319 10316 10314 10312 10311 10309 10308 10307 10306 10304 10303 10301 10300 10298 10297 10295 10293 10291 10289 10287 10284 10282 10279 10277 10274 10272 10269 10267 10264 10261 10259 10257 10254 10252 10249 10246 10244 10241 10239 10236 10233
10371 10371 10371 10371 10370 10370 10369 10369 10368 10368 10367 10366 10366 10365 10364 10363 10362 10361 10359 10358 10358 10356 10355 10353 10350 10348 10346 10346 10345 10344 10344 10345 10346 10344 10341 10337 10333 10330 10328 10328 10326 10324 10321 10318 10316 10314 10311 10308 10306 10304 10303 10301 10300 10299 10298 10296 10294 10293 10291 10289 10287 10285 10283 10281 10279 10276 10274 10271 10269 10266 10264 10261 10259 10256 10253 10251 10248 10245 10243 10240 10237 10234 10232 10229 10227 10224
10364 10364 10364 10364 10363 10363 10363 10362 10361 10361 10360 10359 10359 10358 10358 10356 10355 10353 10351 10351 10351 10350 10348 10346 10343 10341 10340 10339 10338 10337 10338 10338 10338 10337 10334 10331 10328 10324 10323 10323 10321 10319 10316 10313 10311 10308 10306 10303 10300 10298 10297 10295 10294 10292 10291 10289 10288 10286 10284 10282 10280 10278 10276 10273 10271 10268 10266 10263 10261 10258 10255 10253 10250 10247 10244 10241 10239 10236 10233 10230 10228 10226 10223 10221 10218 10215
10358 10358 10358 10357 10357 10356 10356 10355 10354 10354 10353 10352 10352 10351 10351 10350 10348 10346 10344 10344 10344 10343 10341 10339 10338 10336 10334 10333 10331 10331 10331 10331 10331 10330 10328 10325 10322 10319 10318 10317 10316 10314 10312 10309 10306 10304 10301 10298 10295 10293 10291 10289 10287 10286 10284 10283 10281 10279 10277 10275 10273 10271 10268 10266 10263 10260 10258 10254 10252 10249 10246 10244 10241 10238 10235 10233 10229 10226 10224 10221 10219 10216 10214 10211 10209 10206
10351 10351 10351 10350 10350 10349 10349 10348 10347 10346 10346 10345 10345 10344 10344 10343 10342 10339 10338 10338 10337 10336 10334 10333 10331 10330 10328 10326 10325 10324 10324 10324 10325 10324 10322 10319 10316 10314 10313 10312 10311 10309 10308 10306 10303 10299 10296 10293 10290 10288 10286 10283 10281 10279 10277 10276 10274 10272 10270 10268 10265 10263 10260 10258 10255 10252 10249 10246 10243 10240 10238 10235 10232 10229 10226 10223 10220 10218 10214 10212 10209 10207 10204 10202 10199 10196
10344 10344 10344 10343 10343 10343 10342 10341 10340 10339 10339 10339 10338 10338 10337 10336 10336 10334 10332 10331 10331 10329 10328 10326 10325 10324 10323 10321 10319 10318 10318 10318 10319 10318 10316 10313 10311 10309 10308 10307 10306 10305 10304 10302 10299 10296 10292 10288 10286 10283 10281 10278 10276 10273 10271 10269 10268 10265 10263 10261 10258 10255 10252 10249 10246 10243 10241 10238 10234 10232 10229 10226 10223 10221 10218 10214 10211 10208 10205 10202 10199 10197 10195 10193 10190 10187
10336 10336 10336 10336 10336 10336 10335 10334 10333 10333 10333 10332 10332 10331 10331 10330 10329 10328 10326 10325 10324 10323 10321 10320 10319 10318 10317 10316 10314 10312 10311 10312 10313 10313 10311 10308 10306 10304 10303 10302 10300 10299 10299 10298 10295 10292 10288 10284 10281 10278 10276 10273 10270 10268 10265 10263 10261 10258 10256 10253 10251 10248 10244 10242 10239 10235 10233 10229 10226 10223 10221 10218 10215 10212 10209 10206 10202 10199 10196 10193 10190 10188 10185 10183 10181 10178
10329 10329 10329 10328 10328 10328 10328 10328 10327 10326 10326 10326 10325 10325 10324 10323 10323 10321 10320 10319 10318 10317 10316 10314 10313 10312 10311 10310 10308 10307 10306 10306 10307 10307 10306 10304 10301 10299 10298 10296 10294 10293 10293 10292 10291 10288 10284 10281 10278 10274 10271 10268 10264 10261 10259 10257 10254 10253 10250 10248 10244 10241 10238 10235 10231 10228 10225 10222 10219 10216 10213 10210 10207 10204 10201 10198 10194 10191 10187 10184 10181 10179 10176 10174 10173 10170
10322 10322 10322 10322 10322 10321 10321 10321 10321 10320 10320 10319 10319 10318 10318 10317 10316 10315 10314 10313 10313 10311 10310 10308 10308 10306 10306 10304 10303 10303 10302 10301 10302 10302 10301 10299 10296 10294 10293 10291 10289 10287 10286 10285 10284 10283 10281 10278 10274 10271 10268 10264 10260 10256 10253 10251 10249 10247 10244 10242 10239 10235 10232 10229 10226 10222 10219 10216 10213 10210 10207 10204 10201 10198 10194 10190 10186 10183 10179 10176 10173 10170 10168 10166 10164 10162
10315 10315 10315 10315 10315 10315 10315 10315 10314 10314 10314 10313 10313 10312 10311 10311 10310 10309 10308 10308 10307 10306 10304 10303 10303 10301 10300 10299 10299 10298 10297 10297 10298 10297 10296 10294 10291 10289 10286 10284 10283 10281 10280 10279 10278 10277 10275 10273 10271 10268 10264 10260 10256 10253 10249 10246 10244 10242 10239 10237 10233 10229 10226 10223 10220 10216 10213 10211 10208 10204 10201 10198 10195 10192 10188 10184 10180 10176 10172 10168 10165 10162 10159 10157 10155 10153
10309 10309 10309 10309 10309 10309 10309 10309 10309 10308 10308 10308 10307 10306 10306 10305 10304 10304 10303 10303 10301 10301 10299 10299 10298 10297 10296 10295 10294 10293 10293 10293 10293 10292 10291 10288 10286 10283 10281 10279 10278 10276 10275 10273 10272 10271 10269 10266 10265 10263 10259 10256 10252 10249 10245 10242 10239 10236 10234 10231 10228 10224 10221 10218 10214 10211 10208 10206 10203 10199 10196 10193 10190 10186 10183 10178 10174 10169 10166 10161 10158 10154 10151 10149 10146 10144
10303 10303 10304 10304 10304 10304 10303 10303 10303 10303 10302 10302 10301 10301 10300 10299 10299 10298 10298 10298 10296 10296 10295 10294 10294 10293 10292 10291 10290 10288 10288 10287 10286 10286 10284 10283 10281 10279 10276 10274 10273 10272 10270 10268 10266 10265 10263 10260 10258 10256 10254 10251 10247 10244 10240 10238 10234 10231 10228 10226 10223 10219 10215 10212 10209 10206 10203 10201 10198 10194 10192 10188 10185 10181 10177 10173 10169 10164 10159 10155 10151 10147 10144 10141 10138 10136
10298 10298 10298 10299 10299 10298 10298 10298 10298 10298 10297 10296 10296 10296 10295 10294 10294 10294 10293 10293 10292 10291 10291 10290 10289 10289 10288 10287 10286 10284 10283 10281 10281 10279 10279 10278 10276 10274 10273 10269 10268 10267 10265 10263 10261 10259 10258 10255 10253 10250 10248 10246 10243 10239 10235 10232 10229 10226 10223 10220 10217 10213 10209 10206 10203 10201 10198 10196 10193 10189 10186 10183 10180 10176 10172 10168 10163 10159 10154 10149 10145 10141 10137 10133 10130 10128
10293 10293 10293 10293 10293 10293 10293 10293 10293 10293 10292 10292 10291 10291 10291 10290 10289 10289 10289 10288 10288 10288 10287 10286 10285 10284 10283 10282 10281 10279 10278 10276 10275 10274 10274 10273 10272 10270 10268 10266 10263 10261 10260 10258 10256 10254 10252 10249 10247 10244 10242 10240 10238 10234 10230 10227 10224 10221 10218 10215 10211 10208 10203 10200 10198 10195 10193 10190 10188 10184 10181 10178 10174 10171 10166 10162 10158 10153 10148 10143 10139 10134 10131 10127 10124 10121
10288 10288 10288 10289 10289 10288 10288 10288 10288 10288 10288 10288 10287 10287 10286 10286 10286 10286 10285 10284 10284 10283 10283 10281 10280 10279 10278 10277 10276 10274 10273 10272 10271 10270 10269 10268 10267 10266 10264 10261 10258 10256 10254 10253 10251 10249 10246 10244 10242 10240 10238 10234 10232 10229 10226 10223 10219 10216 10214 10211 10206 10203 10198 10195 10192 10189 10188 10185 10182 10179 10176 10173 10169 10165 10161 10156 10152 10147 10142 10137 10133 10128 10124 10121 10117 10114
10284 10284 10284 10284 10284 10284 10284 10284 10284 10284 10284 10284 10283 10283 10283 10283 10282 10282 10281 10281 10280 10279 10278 10276 10275 10274 10273 10272 10271 10271 10269 10268 10267 10266 10264 10263 10262 10260 10259 10256 10254 10251 10249 10247 10245 10243 10241 10238 10236 10234 10233 10230 10228 10224 10221 10218 10214 10212 10209 10206 10202 10198 10194 10190 10186 10184 10182 10179 10177 10174 10170 10167 10163 10159 10154 10150 10145 10141 10136 10131 10126 10122 10118 10114 10111 10108
10279 10280 10280 10280 10281 10281 10281 10281 10281 10281 10280 10280 10280 10279 10279 10279 10279 10278 10277 10276 10275 10274 10273 10271 10270 10269 10268 10268 10267 10266 10266 10264 10263 10262 10260 10259 10257 10255 10253 10251 10249 10246 10244 10241 10239 10237 10234 10233 10230 10228 10226 10224 10222 10219 10216 10213 10210 10208 10204 10201 10198 10193 10189 10185 10181 10178 10176 10173 10171 10168 10164 10161 10157 10153 10148 10143 10138 10134 10129 10124 10119 10116 10112 10109 10106 10103
10276 10276 10277 10277 10277 10277 10277 10277 10277 10277 10277 10277 10277 10276 10276 10276 10274 10274 10273 10271 10271 10269 10269 10268 10266 10265 10264 10263 10263 10263 10261 10260 10259 10257 10256 10254 10252 10250 10248 10246 10244 10242 10239 10236 10233 10231 10228 10226 10224 10221 10219 10218 10216 10213 10210 10208 10205 10202 10199 10196 10193 10189 10184 10181 10177 10174 10171 10167 10164 10162 10159 10155 10151 10147 10142 10137 10132 10127 10123 10118 10113 10109 10106 10102 10099 10097
10273 10273 10274 10274 10274 10274 10274 10274 10274 10274 10274 10274 10273 10273 10272 10271 10270 10269 10268 10267 10266 10266 10265 10264 10263 10261 10260 10259 10258 10257 10257 10256 10254 10253 10251 10249 10248 10245 10243 10241 10239 10237 10234 10231 10228 10224 10222 10219 10217 10214 10213 10211 10209 10208 10204 10202 10199 10196 10193 10190 10187 10183 10179 10174 10172 10169 10166 10161 10158 10155 10152 10149 10145 10141 10136 10131 10126 10121 10116 10111 10107 10103 10099 10096 10093 10089
10270 10271 10271 10271 10271 10271 10272 10271 10271 10271 10271 10270 10269 10268 10268 10267 10266 10265 10264 10264 10263 10262 10261 10261 10259 10258 10256 10254 10253 10252 10251 10250 10249 10248 10246 10244 10243 10241 10238 10236 10233 10231 10229 10226 10223 10219 10216 10213 10210 10208 10206 10204 10203 10201 10199 10197 10194 10191 10188 10184 10181 10178 10174 10169 10166 10163 10159 10156 10153 10149 10146 10142 10139 10134 10130 10125 10120 10114 10109 10104 10100 10096 10093 10089 10086 10083
10268 10268 10268 10269 10269 10269 10269 10268 10268 10268 10267 10266 10265 10264 10264 10263 10263 10262 10261 10260 10259 10259 10258 10257 10255 10253 10251 10250 10248 10247 10245 10244 10243 10242 10241 10239 10238 10236 10233 10230 10228 10224 10222 10219 10216 10214 10210 10206 10203 10201 10200 10198 10197 10195 10193 10191 10189 10186 10183 10179 10175 10171 10168 10164 10161 10158 10154 10150 10146 10143 10139 10136 10132 10128 10124 10119 10114 10108 10103 10098 10093 10088 10085 10082 10079 10076
10266 10266 10266 10266 10266 10266 10265 10264 10264 10263 10263 10263 10262 10261 10261 10260 10259 10259 10258 10257 10256 10255 10254 10253 10251 10249 10247 10245 10244 10242 10240 10238 10237 10236 10234 10233 10231 10229 10227 10224 10221 10219 10216 10213 10209 10207 10204 10201 10198 10195 10193 10192 10191 10189 10188 10186 10184 10181 10178 10174 10170 10166 10161 10158 10155 10152 10148 10144 10140 10136 10133 10129 10126 10122 10118 10113 10108 10103 10097 10091 10086 10081 10078 10075 10073 10070
10263 10263 10263 10263 10262 10262 10261 10261 10261 10260 10260 10259 10259 10259 10258 10258 10257 10256 10254 10254 10253 10251 10249 10248 10246 10245 10243 10241 10239 10238 10236 10233 10231 10229 10228 10226 10224 10222 10220 10218 10215 10212 10209 10206 10203 10199 10197 10194 10191 10189 10188 10186 10185 10184 10182 10181 10178 10175 10172 10168 10164 10160 10156 10152 10148 10145 10141 10138 10134 10129 10126 10122 10119 10115 10111 10108 10103 10097 10091 10085 10079 10074 10071 10068 10067 10064
10259 10259 10259 10259 10259 10259 10258 10258 10258 10258 10257 10257 10256 10256 10255 10254 10254 10253 10251 10250 10248 10247 10245 10243 10242 10241 10239 10237 10235 10234 10231 10229 10226 10224 10222 10219 10218 10215 10213 10210 10208 10204 10202 10199 10196 10193 10190 10187 10184 10183 10182 10181 10180 10178 10177 10175 10173 10169 10166 10163 10159 10154 10151 10147 10143 10139 10135 10131 10127 10123 10119 10116 10112 10108 10105 10101 10098 10092 10086 10079 10073 10068 10064 10063 10061 10059
10256 10256 10256 10256 10256 10256 10256 10255 10255 10255 10254 10254 10254 10253 10252 10251 10250 10249 10247 10246 10244 10243 10241 10239 10238 10236 10234 10232 10231 10229 10227 10224 10222 10219 10218 10215 10212 10209 10206 10204 10201 10198 10195 10193 10189 10186 10183 10180 10178 10176 10175 10175 10174 10173 10171 10170 10168 10164 10160 10156 10153 10149 10145 10141 10137 10133 10129 10124 10120 10116 10113 10109 10106 10102 10099 10095 10091 10086 10081 10074 10068 10063 10059 10057 10055 10053
10254 10254 10254 10254 10253 10253 10253 10253 10253 10253 10252 10251 10251 10249 10249 10248 10246 10245 10243 10242 10240 10239 10238 10236 10234 10231 10229 10227 10226 10224 10222 10219 10218 10215 10213 10211 10208 10205 10201 10199 10196 10193 10189 10186 10183 10181 10177 10173 10170 10168 10168 10168 10168 10167 10165 10164 10162 10159 10154 10150 10146 10143 10139 10136 10131 10127 10123 10118 10114 10110 10106 10103 10099 10096 10093 10089 10084 10081 10076 10070 10064 10059 10054 10052 10050 10047
10251 10251 10251 10251 10251 10251 10251 10251 10250 10249 10249 10248 10247 10246 10244 10243 10242 10241 10239 10238 10237 10235 10233 10231 10229 10228 10225 10223 10221 10219 10217 10215 10213 10210 10208 10206 10203 10200 10197 10194 10191 10189 10185 10182 10179 10176 10173 10168 10164 10161 10159 10159 10161 10161 10159 10158 10156 10153 10149 10144 10141 10137 10133 10129 10126 10121 10117 10113 10108 10104 10100 10096 10093 10089 10086 10081 10078 10074 10070 10066 10060 10054 10051 10048 10044 10041